sat.trackr.live / text

‹ back to catalog

ONEWEB-0355

NORAD 49218 · 2021-083AJ

PAYLOAD ACTIVE UNKNOWN

§ Identity

Operator
Country
UK
Launch date
2021-09-14
Launch site
TYMSC
Launch vehicle
Mass (kg)
RCS (m²)

Purposes: comms

External: N2YO · Heavens-Above · Gunter

§ Orbital elements

Epoch: 2026-05-25T01:09:35.305056Z

Period
109.63 min
Inclination
87.8930°
Eccentricity
0.0001596
Mean motion
13.13468015 rev/d
Perigee alt
1,208.6 km
Apogee alt
1,211.0 km
Semi-major
7,587.9 km
B*
-1.4397e-4
RAAN
324.8455°
Arg perigee
96.0465°
Mean anomaly
264.0846°
Rev number
22,786

§ Raw data

ONEWEB-03551 49218U 21083AJ  26145.04832529 -.00000040  00000+0 -14397-3 0  99912 49218  87.8930 324.8455 0001596  96.0465 264.0846 13.13468015227860

JSON: /api/v1/satellites/49218 · /tle

For live sub-satellite position, see the globe view (requires WebGL).

§ Visibility from observer

Set your observer location to see the next 7 days of passes ≥ 10°. The values pass through the URL so the page stays shareable.

No JS? Fill the form by hand. The geolocation button needs JavaScript.